Probability
0 0 0 0 0 0 0 0 0 0 0 0 0 0 0 0 0 0 0 0 0 0 0 0 0 0 0 0 0 0 0 0 0 0 0 0 0 0 0 0 0 0 0 0
0 0 0 0 0 0 0 0 0 0 0 0 0 0 0 0 0 0 0 0 0 0 0 0 0 0 0 0 0 0 0 0 0 0 0 0 0 0 0 0 0 0 0 0
0 0 0 0 0 0 0 0 0 0 0 0 0 0 0 0 0 0 0 0 0 0 0 0 0 0 0 0 0 0 0 0 0 0 0 0 0 0 0 0 0 0 0 0
0 0 0 0 0 0 0 0 0 0 0 0 0 0 0 0 0 0 0 0 0 0 0 0 0 0 0 0 0 0 0 0 0 0 0 0 0 0 0 0 0 0 0 0
0 0 0 0 0 0 0 0 0 0 0 0 0 0 0 0 0 0 0 0 0 0 0 0 0 0 0 0 0 0 0 0 0 0 0 0 0 0 0 0 0 0 0 0
0 0 0 0 0 0 0 0 0 0 0 0 0 0 0 0 0 0 0 0 0 0 0 0 0 0 0 0 0 0 0 0 0 0 0 0 0 0 0 0 0 0 0 0
0 0 0 0 0 0 0 0 0 0 0 0 0 0 0 0 0 0 0 0 0 0 0 0 0 0 0 0 0 0 0 0 0 0 0 0 0 0 0 0 0 0 0 0
0 0 0 0 0 0 0 0 0 0 0 0 0 0 0 0 0 0 0 0 0 0 0 0 0 0 0 0 0 0 0 0 0 0 0 0 0 0 0 0 0 0 0 0
0 0 0 0 0 0 0 0 0 0 0 0 0 0 0 0 0 0 0 0 0 0 0 0 0 0 0 0 0 0 0 0 0 0 0 0 0 0 0 0 0 0 0 0
0 0 0 0 0 0 0 0 0 0 0 0 0 0 0 0 0 0 0 0 0 0 0 0 0 0 0 0 0 0 0 0 0 0 0 0 0 0 0 0 0 0 0 0
0 0 0 0 0 0 0 0 0 0 0 0 0 0 0 0 0 0 0 0 0 0 0 0 0 0 0 0 0 0 0 0 0 0 0 0 0 0 0 0 0 0 0 0
0 0 0 0 0 0 0 0 0 0 0 0 0 0 0 0 0 0 0 0 0 0 0 0 0 0 0 0 0 0 0 0 0 0 0 0 0 0 0 0 0 0 0 0
0 0 0 0 0 0 0 0 0 0 0 0 0 0 0 0 0 0 0 0 0 0 0 0 0 0 0 0 0 0 0 0 0 0 0 0 0 0 0 0 0 0 0 0
0 0 0 0 0 0 0 0 0 0 0 0 0 0 0 0 0 0 0 0 0 0 0 0 0 0 0 0 0 0 0 0 0 0 0 0 0 0 0 0 0 0 0 0
0 0 0 0 0 0 0 0 0 0 0 0 0 0 0 0 0 0 0 0 0 0 0 0 0 0 0 0 0 0 0 0 0 0 0 0 0 0 0 0 0 0 0 0
0 0 0 0 0 0 0 0 0 0 0 0 0 0 0 0 0 0 0 0 0 0 0 0 0 0 0 0 0 0 0 0 0 0 0 0 0 0 0 0 0 0 0 0
0 0 0 0 0 0 0 0 0 0 0 0 0 0 0 0 0 0 0 0 0 0 0 0 0 0 0 0 0 0 0 0 0 0 0 0 0 0 0 0 0 0 0 0
0 0 0 0 0 0 0 0 0 0 0 0 0 0 0 0 0 0 0 0 0 0 0 0 0 0 0 0 0 0 0 0 0 0 0 0 0 0 0 0 0 0 0 0
0 0 0 0 0 0 0 0 0 0 0 0 0 0 0 0 0 0 0 0 0 0 0 0 0 0 0 0 0 0 0 0 0 0 0 0 0 0 0 0 0 0 0 0
0 0 0 0 0 0 0 0 0 0 0 0 0 0 0 0 0 0 0 0 0 0 0 0 0 0 0 0 0 0 0 0 0 0 0 0 0 0 0 0 0 0 0 0
0 0 0 0 0 0 0 0 0 0 0 0 0 0 0 0 0 0 0 0 0 0 0 0 0 0 0 0 0 0 0 0 0 0 0 0 0 0 0 0 0 0 0 0
0 0 0 0 0 0 0 0 0 0 0 0 0 0 0 0 0 0 0 0 0 0 0 0 0 0 0 0 0 0 0 0 0 0 0 0 0 0 0 0 0 0 0 0
0 0 0 0 0 0 0 0 0 0 0 0 0 0 0 0 0 0 0 0 0 0 0 0 0 0 0 0 0 0 0 0 0 0 0 0 0 0 0 0 0 0 0 0
0 0 0 0 0 0 0 0 0 0 0 0 0 0 0 0 0 0 0 0 0 0 0 0 0 0 0 0 0 0 0 0 0 0 0 0 0 0 0 0 0 0 0 0
0 0 0 0 0 0 0 0 0 0 0 0 0 0 0 0 0 0 0 0 0 0 0 0 0 0 0 0 0 0 0 0 0 0 0 0 0 0 0 0 0 0 0 0
0 0 0 0 0 0 0 0 0 0 0 0 0 0 0 0 0 0 0 0 0 0 0 0 0 0 0 0 0 0 0 0 0 0 0 0 0 0 0 0 0 0 0 0
Wind_Speed
1 3 3 2 2 2 1 3 3 2 2 0 3 4 5 5 6 6 5 5 5 5 5 6 6 5 4 3 3 3 3 2 2 1 1 1 2 2 2 2 4 5 5 5
3 5 4 2 1 1 3 3 3 2 2 1 2 5 6 6 7 6 5 5 4 4 5 5 6 5 4 3 3 3 2 2 2 1 1 0 0 0 0 1 2 3 4 4
6 3 3 2 3 3 5 3 2 1 1 3 2 5 4 4 4 4 4 3 3 4 5 6 6 5 4 3 3 2 2 2 1 1 0 0 0 0 1 1 1 2 3 3
5 3 3 4 5 4 3 3 2 0 1 1 1 3 3 5 6 6 5 4 3 2 3 5 5 5 5 4 3 3 2 1 1 1 0 0 0 1 1 0 1 1 2 2
4 4 4 4 4 5 3 2 1 2 1 2 2 2 5 4 5 6 5 4 3 3 3 3 4 4 4 4 4 3 3 2 2 1 1 1 1 1 1 1 1 1 1 1
4 2 4 3 2 2 0 2 3 2 1 2 3 3 4 2 3 4 5 5 3 3 3 3 3 3 3 3 4 3 3 3 3 2 2 2 2 2 1 1 1 1 1 1
3 3 2 1 1 0 2 1 1 1 1 3 2 1 5 1 4 4 5 5 4 3 3 3 3 3 3 3 4 4 4 4 3 3 3 3 3 2 2 2 1 1 1 1
1 1 2 2 3 2 2 2 1 1 2 1 1 4 3 4 5 5 4 4 3 3 3 2 3 3 3 4 4 4 5 4 4 4 4 3 3 2 2 2 2 2 1 1
2 1 2 1 2 3 2 1 1 2 3 3 4 3 3 5 5 4 4 3 3 3 2 2 2 2 3 4 4 5 5 4 4 4 4 4 4 3 3 3 2 2 2 2
3 1 2 2 2 1 2 3 1 0 1 3 4 3 3 3 4 4 3 3 3 2 1 1 2 2 2 3 3 3 4 4 4 4 4 4 4 4 4 3 3 3 2 2
3 0 1 2 3 2 2 1 2 2 1 1 3 2 2 4 5 4 3 2 1 0 1 1 1 2 2 3 3 3 4 4 4 4 4 4 4 4 4 4 4 3 3 3
3 2 2 2 2 2 2 2 2 1 2 3 2 5 3 5 5 3 2 1 1 1 1 1 2 2 2 2 2 3 3 4 4 4 4 4 4 4 4 4 4 4 4 3
3 2 2 1 0 1 2 3 3 2 2 2 3 5 2 4 3 2 1 1 1 1 1 1 1 2 2 2 2 3 3 4 4 4 4 4 4 5 5 5 4 4 4 4
3 2 3 3 1 1 3 4 5 4 3 4 7 6 3 3 1 1 1 1 1 2 1 1 2 2 2 3 3 3 3 3 3 4 4 5 5 5 5 5 4 4 4 4
2 3 4 7 7 6 7 8 8 10 9 7 6 5 5 3 3 2 2 2 2 3 2 2 2 3 3 3 3 3 3 3 3 4 5 6 5 5 4 4 4 4 5 5
2 3 4 6 7 7 9 11 11 11 12 13 12 12 6 1 1 2 2 3 4 3 3 3 3 4 4 4 4 3 3 3 3 4 5 5 4 5 5 5 4 5 5 4
2 2 2 4 4 5 9 9 11 8 7 7 10 8 3 2 2 3 4 4 4 3 3 3 4 4 5 5 4 4 4 3 3 4 5 4 5 5 5 5 5 5 5 5
2 2 2 4 5 7 5 1 1 5 6 7 6 4 3 2 3 4 4 3 2 3 4 5 4 5 5 4 4 4 3 3 4 4 5 5 5 5 5 5 5 5 4 5
3 3 3 2 4 8 4 2 2 2 4 3 4 3 2 3 4 3 2 3 3 4 4 5 5 5 5 5 4 3 3 4 4 5 5 5 5 5 5 6 6 5 4 5
2 3 3 3 4 7 2 3 2 1 3 0 1 1 1 2 3 3 3 4 5 4 4 4 4 5 5 5 3 3 4 5 5 5 5 5 5 5 6 6 6 4 4 5
4 4 6 6 6 9 1 5 3 2 3 1 1 1 1 2 4 5 6 5 5 5 5 5 5 5 5 4 3 4 5 6 6 5 5 5 5 5 6 5 4 4 4 4
8 7 7 6 7 9 4 5 4 2 0 0 1 2 3 4 5 5 6 6 6 5 5 5 4 5 5 4 4 5 6 6 4 4 5 5 5 5 4 5 4 4 4 4
7 8 5 8 9 3 5 3 2 1 1 2 2 3 4 5 6 6 6 6 5 5 5 4 5 5 5 4 4 6 7 5 4 4 5 5 5 5 4 5 5 4 4 4
5 3 3 5 6 4 4 3 2 2 2 3 3 4 4 6 6 7 6 6 5 5 5 4 5 6 6 5 5 6 6 4 4 5 6 5 5 5 4 4 4 4 5 5
4 3 4 7 7 6 5 3 2 3 3 4 4 4 4 5 7 7 6 6 5 5 4 4 5 6 7 6 6 5 5 4 5 6 5 5 5 5 4 4 5 5 5 6
6 7 7 8 5 4 4 2 3 4 4 4 4 5 5 5 6 6 6 5 5 5 5 5 6 6 7 7 7 6 5 5 5 6 5 4 4 4 4 3 4 7 8 10
Wind_Direction
42 64 59 52 14 345 169 120 100 84 89 218 230 246 233 194 200 207 205 208 196 181 158 146 136 131 131 126 121 106 89 64 49 37 24 34 32 26 25 23 20 13 9 4
68 47 6 360 339 19 80 90 83 78 72 285 274 267 246 210 204 202 201 208 201 176 156 149 139 140 143 146 144 123 108 89 69 68 37 64 49 10 47 17 13 10 10 5
77 45 331 23 36 47 52 50 73 65 321 240 264 283 212 182 179 180 189 201 204 185 168 159 152 152 156 159 155 138 127 118 113 108 75 7 8 322 11 0 356 2 11 10
65 24 15 51 29 5 70 44 55 13 317 252 197 295 258 174 174 184 188 192 198 179 157 156 157 160 169 170 154 148 150 156 160 152 150 226 250 267 272 281 304 343 13 11
64 27 23 48 19 6 70 3 330 304 300 313 231 230 269 169 181 182 170 168 171 159 151 149 150 159 167 161 157 165 172 185 185 183 195 234 264 270 300 324 322 339 347 7
99 64 26 35 24 19 294 260 234 246 303 278 223 199 271 200 165 144 141 143 147 141 140 142 144 146 157 157 163 173 186 203 198 198 207 216 237 257 285 301 314 319 317 335
89 94 71 333 319 209 273 322 16 357 267 246 129 191 251 126 94 110 123 122 126 134 141 152 159 168 178 183 190 190 198 216 209 204 213 219 222 227 241 257 265 283 296 307
87 78 90 15 358 340 320 350 45 279 292 311 199 228 244 108 99 94 105 125 134 139 141 155 173 185 192 199 202 199 209 220 214 209 213 216 219 215 223 227 231 247 254 263
34 100 104 60 349 334 329 28 2 325 301 281 249 210 138 115 117 128 138 137 139 126 131 159 188 194 202 207 208 206 212 217 215 211 209 212 216 214 218 222 222 229 234 248
352 82 147 137 224 250 317 334 334 200 317 289 272 222 179 143 137 135 127 107 87 81 100 197 217 209 211 214 212 210 213 218 218 211 210 212 212 214 217 215 220 225 229 237
338 50 188 197 215 198 179 229 248 277 278 266 299 302 79 117 112 110 103 90 71 8 282 259 239 226 219 213 207 215 220 221 220 217 213 214 214 214 214 216 220 221 225 227
5 330 251 202 92 22 302 258 228 225 261 238 260 274 78 102 108 100 83 51 2 346 314 273 253 241 237 233 227 224 222 222 222 217 216 216 218 214 219 224 223 219 222 221
348 304 303 240 156 191 258 252 262 302 339 258 237 255 145 142 137 129 110 26 3 346 335 320 313 289 268 255 245 238 228 227 225 219 221 223 224 220 224 225 220 216 220 221
330 279 235 251 308 237 242 237 219 205 206 238 231 246 226 231 315 350 358 360 333 319 307 309 306 302 301 287 262 248 239 226 221 220 225 229 230 228 227 222 217 215 216 216
275 271 275 282 285 273 259 252 229 219 222 234 253 269 281 316 333 338 343 337 325 309 305 308 304 298 294 291 281 264 251 233 219 222 230 234 232 230 227 221 219 218 218 218
251 277 303 284 258 255 262 251 242 241 237 247 267 280 286 306 326 327 336 322 305 295 299 314 315 307 298 290 283 276 263 246 225 228 237 239 233 230 225 222 219 217 220 220
222 258 299 282 310 313 269 241 219 217 219 226 243 253 298 322 326 318 301 284 284 297 319 314 303 294 292 291 286 278 268 267 249 241 242 238 233 233 230 223 219 220 220 218
246 236 249 284 314 255 241 88 159 213 233 226 243 277 322 324 313 295 289 289 314 329 321 309 298 293 291 291 290 280 273 264 257 250 246 241 232 233 230 224 225 225 220 219
256 231 247 263 277 275 251 180 150 197 266 234 234 266 312 349 326 299 359 19 337 312 302 295 293 292 290 287 283 281 277 268 261 255 249 243 234 232 229 228 228 225 220 224
276 256 248 239 251 258 246 124 92 79 260 75 116 282 323 349 308 279 340 339 318 307 296 292 291 294 289 286 289 286 278 270 262 257 253 245 236 231 229 230 231 225 219 223
172 200 219 233 249 265 224 138 128 182 224 102 44 316 301 270 256 292 319 313 306 300 296 293 290 287 281 282 284 276 272 264 260 258 255 247 239 235 232 230 225 221 218 218
183 187 201 201 223 250 162 145 190 218 135 349 327 316 302 288 289 298 299 297 298 298 296 295 291 287 285 280 274 273 269 266 264 260 256 249 242 237 233 227 226 215 207 215
202 202 199 203 219 221 167 193 203 162 266 288 291 298 297 292 291 293 294 293 291 290 291 292 287 288 287 275 264 270 273 273 272 265 259 255 247 236 228 222 223 219 209 214
225 206 246 268 264 258 240 252 265 275 276 290 297 302 301 291 293 294 292 290 289 289 290 291 290 288 287 281 270 265 273 272 268 265 262 255 247 242 231 223 216 215 213 215
232 184 233 260 273 281 257 254 300 327 319 310 306 300 291 290 291 291 290 287 285 287 285 284 280 280 284 286 280 274 272 266 265 266 263 258 246 240 236 228 222 221 221 214
211 210 220 245 253 263 287 329 338 313 299 299 302 297 291 283 285 290 288 285 285 286 286 285 279 278 283 286 283 278 270 259 260 265 261 254 247 240 233 235 251 236 230 236